Zurück zum Katalog

COSMOS 1818 COOLANT

LostLEO
NORAD 50788·DEBRIS·🇷🇺 Russia

Gestartet Feb 1, 1987 von Baikonur Cosmodrome

Loading…

Nächste Überflüge (nächste 24 Stunden)

TLE

VeraltetSource: Space-Track

Epoche: Sep 13, 2022, 04:21 UTC

1 50788U 87011BD  22256.18139772  .00000450  00000-0  19539-3 0  9999
2 50788  65.0080  98.7194 0014061 250.7277 109.2288 14.34310783642948

Verfolge COSMOS 1818 COOLANT in Echtzeit mit AllMySat

Download on the App Store